GW1240 Weather Reports


time (UTC)temp
C
wind
direction
speed
KPH
gust
KPH
rain 1hr
cm
rain 24hr
cm
rain mn
cm
humidity
%
barometer
mb
20260507105351 9 276 4.8 4.8 0.00 0.03 0.03 82 1004.9
20260507104848 9 274 3.2 3.2 0.00 0.03 0.03 83 1004.7
20260507104345 9 330 6.4 9.7 0.00 0.03 0.03 83 1004.8
20260507103841 9 255 1.6 1.6 0.00 0.03 0.03 84 1004.6
20260507103337 9 332 4.8 11.3 0.00 0.03 0.03 84 1004.6
20260507102834 9 314 6.4 6.4 0.00 0.03 0.03 83 1004.4
20260507102330 9 338 9.7 11.3 0.00 0.03 0.03 84 1004.8
20260507101827 9 319 9.7 14.5 0.00 0.03 0.03 84 1004.9
20260507101322 9 319 4.8 4.8 0.00 0.03 0.03 84 1004.8
20260507100819 9 274 6.4 6.4 0.00 0.03 0.03 83 1004.2
20260507100318 9 254 6.4 9.7 0.00 0.03 0.03 84 1004.5
20260507095816 9 274 4.8 6.4 0.00 0.03 0.03 84 1005.1
20260507095311 9 243 1.6 1.6 0.00 0.03 0.03 84 1004.7
20260507094809 9 237 1.6 1.6 0.00 0.03 0.03 84 1004.4
20260507094305 9 333 4.8 11.3 0.00 0.03 0.03 84 1004.5
20260507093802 9 315 3.2 4.8 0.00 0.03 0.03 84 1004.7
20260507093301 9 292 1.6 3.2 0.00 0.03 0.03 84 1004.3
20260507092758 9 275 3.2 4.8 0.00 0.03 0.03 84 1004.7
20260507092254 9 292 9.7 14.5 0.00 0.03 0.03 83 1004.8
20260507091750 9 268 0.0 1.6 0.00 0.03 0.03 84 1004.9
20260507091247 10 277 3.2 4.8 0.00 0.03 0.03 84 1004.7
20260507090742 10 239 3.2 4.8 0.00 0.03 0.03 83 1004.5
20260507090239 10 239 0.0 1.6 0.00 0.03 0.03 83 1004.6
20260507085736 10 248 3.2 3.2 0.00 0.03 0.03 84 1004.3
20260507085233 10 207 3.2 3.2 0.00 0.03 0.03 83 1004.1
20260507084730 10 306 9.7 14.5 0.00 0.03 0.03 84 1004.2
20260507084226 10 249 1.6 3.2 0.00 0.03 0.03 84 1004.2
20260507083724 10 256 8.0 11.3 0.13 0.03 0.03 84 1004.1
20260507083220 10 250 1.6 1.6 0.13 0.03 0.03 85 1004.0
20260507082716 10 234 3.2 3.2 0.00 0.00 0.00 85 1004.2
20260507082212 10 212 3.2 6.4 0.00 0.00 0.00 85 1004.0
20260507081709 10 231 1.6 3.2 0.00 0.00 0.00 86 1004.0
20260507081205 10 235 3.2 4.8 0.00 0.00 0.00 85 1004.4
20260507080702 10 233 3.2 4.8 0.00 0.00 0.00 85 1004.5
20260507080153 10 263 4.8 6.4 0.00 0.00 0.00 83 1004.1
20260507075653 10 295 14.5 16.1 0.00 0.00 0.00 82 1003.9
20260507075150 10 222 6.4 11.3 0.00 0.00 0.00 82 1004.2
20260507074647 10 240 3.2 3.2 0.00 0.00 0.00 82 1004.5
20260507074145 10 241 4.8 9.7 0.00 0.00 0.00 82 1004.1
20260507073641 10 247 4.8 6.4 0.00 0.00 0.00 83 1004.1
20260507073137 10 240 1.6 1.6 0.00 0.00 0.00 83 1004.0
20260507072636 10 282 4.8 9.7 0.00 0.00 0.00 83 1003.9
20260507072127 11 244 3.2 4.8 0.00 0.00 0.00 84 1003.7
20260507071625 11 252 1.6 3.2 0.00 0.00 0.00 85 1004.0
20260507071121 11 297 8.0 12.9 0.00 0.00 0.00 86 1003.8
20260507070618 11 283 6.4 6.4 0.00 0.00 0.00 87 1003.6
20260507070115 11 249 1.6 1.6 0.00 0.00 0.00 89 1003.5
20260507065611 11 245 1.6 1.6 0.00 0.00 0.00 89 1003.6
20260507065108 11 270 3.2 4.8 0.00 0.00 0.00 89 1003.6
20260507064606 11 240 3.2 4.8 0.00 0.00 0.00 88 1003.7
20260507064105 11 237 3.2 4.8 0.00 0.00 0.00 88 1003.5
20260507063602 11 236 0.0 1.6 0.00 0.00 0.00 88 1003.2
20260507063059 11 237 1.6 1.6 0.00 0.00 0.00 88 1003.3
20260507062555 11 256 6.4 12.9 0.00 0.00 0.00 87 1003.4
20260507062053 11 244 1.6 3.2 0.00 0.00 0.00 87 1003.5
20260507061550 11 246 1.6 1.6 0.00 0.00 0.00 87 1003.6
20260507061048 11 299 1.6 3.2 0.00 0.00 0.00 87 1003.6
20260507060546 11 238 1.6 1.6 0.00 0.00 0.00 88 1003.5
20260507060042 11 270 1.6 1.6 0.00 0.00 0.00 88 1003.7
20260507055542 11 339 4.8 9.7 0.00 0.00 0.00 88 1003.8
20260507055039 11 248 3.2 3.2 0.00 0.00 0.00 89 1003.8
20260507054535 11 244 1.6 3.2 0.00 0.00 0.00 89 1003.7
20260507054032 11 298 3.2 4.8 0.00 0.00 0.00 89 1003.6
20260507053530 11 277 3.2 4.8 0.00 0.00 0.00 89 1003.4
20260507053029 12 247 4.8 4.8 0.00 0.00 0.00 88 1003.7
20260507052526 11 229 4.8 6.4 0.00 0.00 0.00 88 1003.7
20260507052022 11 226 0.0 1.6 0.00 0.00 0.00 88 1003.6
20260507051520 12 253 1.6 1.6 0.00 0.00 0.00 89 1003.7
20260507051017 12 258 1.6 1.6 0.00 0.00 0.00 89 1003.7
20260507050513 12 250 4.8 6.4 0.00 0.00 0.00 90 1004.0
20260507050010 12 301 9.7 12.9 0.00 0.00 0.00 90 1003.9
20260507045506 12 254 3.2 4.8 0.00 0.00 0.00 90 1003.6
20260507045004 12 246 4.8 6.4 0.00 0.00 0.00 90 1003.4
20260507044500 12 234 3.2 3.2 0.00 0.00 0.00 90 1003.6
20260507043956 12 217 0.0 1.6 0.00 0.00 0.00 91 1003.5
20260507043453 12 271 1.6 3.2 0.00 0.00 0.00 92 1003.7
20260507042949 12 276 6.4 6.4 0.00 0.00 0.00 93 1003.5
20260507042446 13 326 6.4 11.3 0.00 0.00 0.00 94 1003.8
20260507041942 13 302 6.4 9.7 0.00 0.00 0.00 94 1003.8
20260507041439 13 216 4.8 6.4 0.00 0.00 0.00 95 1003.6
20260507040936 13 250 4.8 9.7 0.00 0.00 0.00 96 1003.7
20260507040432 15 254 1.6 1.6 0.00 0.00 0.00 96 1003.2
20260507035928 15 239 3.2 3.2 0.00 0.53 0.53 97 1003.2
20260507035425 15 237 3.2 4.8 0.00 0.53 0.53 97 1003.3
20260507034922 15 238 3.2 3.2 0.00 0.53 0.53 97 1003.0
20260507034419 15 236 3.2 6.4 0.00 0.53 0.53 97 1003.1
20260507033917 15 223 1.6 1.6 0.00 0.53 0.53 97 1003.1
20260507033414 15 214 6.4 9.7 0.00 0.53 0.53 97 1002.8
20260507032911 15 231 1.6 1.6 0.00 0.53 0.53 97 1002.7
20260507032408 15 228 1.6 3.2 0.00 0.53 0.53 97 1002.7
20260507031904 15 212 4.8 4.8 0.00 0.53 0.53 97 1002.6
20260507031401 15 238 4.8 4.8 0.00 0.53 0.53 97 1002.5
20260507030857 15 220 1.6 3.2 0.00 0.53 0.53 97 1002.4
20260507030355 15 237 1.6 3.2 0.00 0.53 0.53 97 1002.4
20260507025851 15 228 4.8 4.8 0.00 0.53 0.53 97 1002.5
20260507025349 15 217 1.6 3.2 0.00 0.53 0.53 97 1002.5
20260507024846 15 236 3.2 4.8 0.00 0.53 0.53 97 1002.8
20260507024344 15 219 1.6 3.2 0.00 0.53 0.53 97 1002.5
20260507023839 15 222 3.2 4.8 0.00 0.53 0.53 98 1002.8
20260507023336 15 231 4.8 4.8 0.00 0.53 0.53 98 1002.4
20260507022834 15 232 3.2 4.8 0.00 0.53 0.53 98 1002.4
20260507022330 15 237 4.8 4.8 0.00 0.53 0.53 98 1002.5
20260507021826 15 233 1.6 3.2 0.00 0.53 0.53 98 1002.4
20260507021321 15 203 3.2 4.8 0.00 0.53 0.53 98 1002.3
20260507020820 15 234 0.0 0.0 0.00 0.53 0.53 98 1002.5
20260507020316 15 215 6.4 9.7 0.00 0.53 0.53 98 1002.6
20260507015814 15 213 4.8 4.8 0.00 0.53 0.53 98 1002.8
20260507015311 15 183 3.2 4.8 0.00 0.53 0.53 98 1002.7
20260507014808 15 236 4.8 6.4 0.00 0.53 0.53 98 1002.7
20260507014304 15 186 4.8 9.7 0.00 0.53 0.53 98 1002.9
20260507013800 14 226 6.4 6.4 0.00 0.53 0.53 98 1002.9
20260507013258 15 200 3.2 3.2 0.00 0.53 0.53 98 1002.9
20260507012755 15 229 1.6 3.2 0.00 0.53 0.53 98 1002.8
20260507012251 15 239 6.4 9.7 0.00 0.53 0.53 98 1002.8
20260507011749 15 239 6.4 9.7 0.00 0.53 0.53 98 1002.8
20260507011245 15 229 1.6 3.2 0.00 0.53 0.53 98 1002.9
20260507010744 15 198 8.0 9.7 0.00 0.53 0.53 98 1002.9
20260507010241 15 230 3.2 4.8 0.00 0.53 0.53 98 1002.9
20260507005738 15 197 1.6 3.2 0.00 0.53 0.53 98 1002.8
20260507005234 15 233 0.0 1.6 0.00 0.53 0.53 98 1002.8
20260507004731 15 226 1.6 3.2 0.00 0.53 0.53 98 1003.0
20260507004229 15 229 3.2 3.2 0.00 0.53 0.53 98 1003.0
20260507003725 15 209 3.2 3.2 0.00 0.53 0.53 97 1002.8
20260507003220 15 204 3.2 4.8 0.18 0.53 0.53 97 1002.9
20260507002716 15 237 4.8 4.8 0.18 0.53 0.53 97 1003.1
20260507002213 15 203 3.2 4.8 0.00 0.51 0.51 97 1002.7
20260507001710 15 242 3.2 4.8 0.00 0.51 0.51 97 1002.7
20260507001207 15 230 1.6 1.6 0.00 0.51 0.51 97 1002.7
20260507000703 15 187 3.2 4.8 0.00 0.51 0.51 97 1002.8
20260507000159 15 224 0.0 0.0 0.00 0.51 0.51 97 1002.7
20260506235656 15 189 3.2 3.2 0.00 0.51 0.51 97 1002.8
20260506235151 15 222 1.6 3.2 0.13 0.51 0.51 96 1002.7
20260506234649 15 222 1.6 1.6 0.30 0.51 0.51 96 1002.6
20260506234146 15 207 1.6 1.6 0.61 0.48 0.48 96 1002.7
20260506233643 15 235 0.0 0.0 0.61 0.46 0.46 96 1002.6
20260506233140 15 182 3.2 4.8 0.36 0.38 0.38 96 1002.7
20260506232636 15 241 1.6 4.8 0.18 0.36 0.36 96 1002.5
20260506232131 15 198 4.8 9.7 0.00 0.33 0.33 96 1002.5
20260506231629 15 221 4.8 6.4 0.00 0.33 0.33 96 1002.7
20260506231127 15 228 3.2 4.8 0.00 0.33 0.33 96 1002.9
20260506230624 15 183 6.4 9.7 0.13 0.33 0.33 95 1002.9
20260506230121 15 224 0.0 1.6 0.13 0.33 0.33 95 1002.8
20260506225617 15 237 4.8 4.8 0.13 0.33 0.33 95 1003.1
20260506225114 15 207 4.8 6.4 0.18 0.30 0.30 95 1002.9
20260506224610 15 198 4.8 6.4 0.18 0.30 0.30 95 1002.7
20260506224107 15 207 6.4 12.9 0.18 0.30 0.30 95 1003.0
20260506223603 15 238 3.2 3.2 0.00 0.28 0.28 95 1003.3
20260506223059 15 223 3.2 4.8 0.00 0.28 0.28 95 1003.0
20260506222556 15 233 3.2 3.2 0.00 0.28 0.28 95 1003.1
20260506222052 15 216 6.4 9.7 0.00 0.28 0.28 95 1002.9
20260506221550 15 190 4.8 6.4 0.00 0.28 0.28 95 1003.3
20260506221048 15 226 3.2 3.2 0.00 0.28 0.28 95 1003.2
20260506220544 15 234 6.4 9.7 0.00 0.28 0.28 95 1003.2
20260506220039 15 188 6.4 9.7 0.00 0.28 0.28 95 1003.4
20260506215537 15 229 3.2 4.8 0.00 0.28 0.28 95 1003.4
20260506215032 15 236 3.2 3.2 0.00 0.28 0.28 95 1003.6
20260506214529 15 206 3.2 4.8 0.00 0.28 0.28 95 1003.7
20260506214026 15 192 4.8 4.8 0.00 0.28 0.28 95 1003.7
20260506213525 15 219 3.2 4.8 0.13 0.28 0.28 95 1003.8
20260506213022 15 235 3.2 3.2 0.13 0.28 0.28 95 1003.7
20260506212518 15 234 4.8 6.4 0.18 0.25 0.25 94 1003.8
20260506212013 15 188 1.6 1.6 0.18 0.25 0.25 94 1004.0
20260506211509 15 234 3.2 3.2 0.00 0.23 0.23 94 1003.8
20260506211007 16 155 6.4 9.7 0.13 0.23 0.23 94 1003.7
20260506210503 16 224 1.6 1.6 0.13 0.23 0.23 93 1004.1
20260506205959 16 210 3.2 3.2 0.18 0.20 0.20 93 1004.1
20260506205455 16 197 3.2 3.2 0.30 0.20 0.20 93 1004.1
20260506204946 16 217 1.6 1.6 0.13 0.18 0.18 92 1004.1
20260506204444 16 212 4.8 4.8 0.18 0.15 0.15 91 1003.9
20260506203941 16 174 4.8 4.8 0.18 0.15 0.15 91 1004.1
20260506203438 16 228 1.6 1.6 0.30 0.13 0.13 90 1003.7
20260506202935 16 226 1.6 3.2 0.30 0.13 0.13 89 1003.9
20260506202432 17 177 3.2 3.2 0.13 0.08 0.08 88 1004.1
20260506201929 17 219 1.6 1.6 0.13 0.08 0.08 87 1003.8
20260506201427 17 226 3.2 4.8 0.00 0.05 0.05 86 1003.9
20260506200923 17 171 3.2 4.8 0.00 0.05 0.05 86 1003.8
20260506200419 17 242 3.2 3.2 0.00 0.05 0.05 86 1003.8
20260506195916 17 192 3.2 3.2 0.00 0.05 0.05 85 1003.7
20260506195413 17 180 3.2 3.2 0.18 0.05 0.05 85 1003.9
20260506194909 17 226 0.0 0.0 0.18 0.05 0.05 84 1003.8
20260506194407 17 215 3.2 4.8 0.00 0.03 0.03 83 1003.9
20260506193904 18 224 1.6 1.6 0.00 0.03 0.03 82 1004.2
20260506193401 18 222 1.6 1.6 0.00 0.03 0.03 81 1004.1
20260506192857 18 224 0.0 1.6 0.18 0.03 0.03 80 1004.0
20260506192354 18 184 0.0 1.6 0.18 0.03 0.03 79 1003.9
20260506191851 18 176 1.6 1.6 0.00 0.00 0.00 79 1003.9
20260506191347 18 185 4.8 6.4 0.00 0.00 0.00 78 1003.9
20260506190844 18 167 3.2 3.2 0.00 0.00 0.00 77 1003.9
20260506190340 18 182 4.8 4.8 0.00 0.00 0.00 76 1004.1
20260506185837 18 209 1.6 3.2 0.00 0.00 0.00 75 1004.1
20260506185334 19 200 6.4 11.3 0.00 0.00 0.00 74 1004.0
20260506184831 19 222 3.2 3.2 0.00 0.00 0.00 73 1004.0
20260506184328 19 236 3.2 3.2 0.00 0.00 0.00 73 1004.0
20260506183826 20 184 3.2 4.8 0.00 0.00 0.00 71 1004.0
20260506183321 20 206 11.3 14.5 0.00 0.00 0.00 67 1004.1
20260506182819 21 148 6.4 9.7 0.00 0.00 0.00 66 1003.9
20260506182315 21 181 6.4 11.3 0.00 0.00 0.00 65 1003.6
20260506181813 21 215 8.0 11.3 0.00 0.00 0.00 64 1003.9
20260506181311 21 251 3.2 4.8 0.00 0.00 0.00 64 1004.0
20260506180808 21 174 6.4 6.4 0.00 0.00 0.00 64 1004.3
20260506180304 21 150 4.8 6.4 0.00 0.00 0.00 63 1004.2
20260506175800 21 187 6.4 11.3 0.00 0.00 0.00 64 1004.1
20260506175257 21 200 8.0 12.9 0.00 0.00 0.00 64 1004.3
20260506174754 21 202 4.8 6.4 0.00 0.00 0.00 64 1004.3
20260506174252 21 245 3.2 4.8 0.00 0.00 0.00 64 1004.2
20260506173749 21 164 6.4 12.9 0.00 0.00 0.00 63 1004.1
20260506173246 22 187 4.8 4.8 0.00 0.00 0.00 63 1004.2
20260506172743 21 178 8.0 11.3 0.00 0.00 0.00 64 1004.4
20260506172239 21 187 3.2 4.8 0.00 0.00 0.00 65 1004.4
20260506171737 21 156 3.2 4.8 0.00 0.00 0.00 65 1004.5
20260506171234 20 161 6.4 11.3 0.00 0.00 0.00 65 1004.6
20260506170732 21 209 8.0 12.9 0.00 0.00 0.00 65 1004.5
20260506170228 21 179 4.8 6.4 0.00 0.00 0.00 65 1004.8
20260506165727 21 209 3.2 3.2 0.00 0.00 0.00 65 1004.7
20260506165223 20 209 3.2 4.8 0.00 0.00 0.00 66 1004.7
20260506164720 20 163 6.4 9.7 0.00 0.00 0.00 66 1004.9
20260506164217 21 145 4.8 9.7 0.00 0.00 0.00 65 1004.9
20260506163714 21 267 6.4 9.7 0.00 0.00 0.00 65 1004.9
20260506163209 21 206 3.2 4.8 0.00 0.00 0.00 65 1004.9
20260506162705 21 153 9.7 12.9 0.00 0.00 0.00 63 1005.0
20260506162203 22 204 4.8 6.4 0.00 0.00 0.00 63 1005.3
20260506161700 22 140 4.8 4.8 0.00 0.00 0.00 62 1005.3
20260506161156 22 189 3.2 4.8 0.00 0.00 0.00 61 1005.3
20260506160654 22 188 4.8 6.4 0.00 0.00 0.00 61 1005.5
20260506160151 22 213 6.4 11.3 0.00 0.00 0.00 62 1005.7
20260506155649 21 192 4.8 4.8 0.00 0.00 0.00 63 1005.7
20260506155146 21 195 6.4 6.4 0.00 0.00 0.00 63 1005.7
20260506153248 21 205 6.4 6.4 0.00 0.00 0.00 64 1006.0
20260506152745 21 211 3.2 3.2 0.00 0.00 0.00 65 1006.4
20260506152242 21 174 3.2 3.2 0.00 0.00 0.00 64 1006.3
20260506151741 21 180 8.0 9.7 0.00 0.00 0.00 64 1006.2
20260506151237 21 153 8.0 11.3 0.00 0.00 0.00 64 1006.2
20260506150734 21 175 4.8 6.4 0.00 0.00 0.00 65 1006.4
20260506150231 21 214 4.8 6.4 0.00 0.00 0.00 65 1006.5
20260506145728 21 170 3.2 6.4 0.00 0.00 0.00 66 1006.5
20260506145225 21 193 4.8 4.8 0.00 0.00 0.00 65 1006.0
20260506144722 21 227 4.8 4.8 0.00 0.00 0.00 64 1006.3
20260506144219 21 238 9.7 11.3 0.00 0.00 0.00 65 1006.1
20260506143716 20 185 11.3 12.9 0.00 0.00 0.00 67 1006.3
20260506143214 20 216 6.4 9.7 0.00 0.00 0.00 67 1005.9
20260506142713 21 204 6.4 6.4 0.00 0.00 0.00 67 1005.9
20260506142210 20 199 3.2 4.8 0.00 0.00 0.00 68 1005.9
20260506141708 20 247 14.5 16.1 0.00 0.00 0.00 68 1006.3
20260506141206 20 227 6.4 9.7 0.00 0.00 0.00 69 1006.1
20260506140703 20 201 3.2 4.8 0.00 0.00 0.00 70 1006.1
20260506140200 20 254 8.0 11.3 0.00 0.00 0.00 69 1006.4
20260506135657 20 215 4.8 6.4 0.00 0.00 0.00 70 1006.3
20260506135153 20 195 3.2 4.8 0.00 0.00 0.00 70 1006.5
20260506134650 19 184 4.8 6.4 0.00 0.00 0.00 71 1006.4
20260506134146 19 217 6.4 6.4 0.00 0.00 0.00 71 1006.8
20260506133643 18 220 4.8 4.8 0.00 0.00 0.00 72 1006.7
20260506133140 19 197 6.4 9.7 0.00 0.00 0.00 72 1006.9
20260506132637 19 224 9.7 12.9 0.00 0.00 0.00 72 1006.6
20260506132134 19 203 6.4 9.7 0.00 0.00 0.00 72 1006.6
20260506131632 18 237 4.8 6.4 0.00 0.00 0.00 72 1006.6
20260506131128 18 190 8.0 9.7 0.00 0.00 0.00 73 1006.7
20260506130625 18 217 9.7 11.3 0.00 0.00 0.00 73 1006.8
20260506130122 19 228 11.3 14.5 0.00 0.00 0.00 72 1006.8
20260506125620 19 231 4.8 6.4 0.00 0.00 0.00 71 1006.7
20260506125118 18 182 4.8 6.4 0.00 0.00 0.00 73 1006.7
20260506124615 18 159 3.2 9.7 0.00 0.00 0.00 74 1006.7
20260506124113 18 230 8.0 9.7 0.00 0.00 0.00 75 1006.9
20260506123610 18 185 4.8 4.8 0.00 0.00 0.00 75 1007.0
20260506123109 18 219 6.4 9.7 0.00 0.00 0.00 75 1006.7
20260506122605 17 194 4.8 4.8 0.00 0.00 0.00 75 1006.9
20260506122103 17 218 3.2 3.2 0.00 0.00 0.00 76 1006.8
20260506121601 17 190 9.7 12.9 0.00 0.00 0.00 76 1006.7
20260506121056 17 219 6.4 6.4 0.00 0.00 0.00 76 1006.7
20260506120555 17 176 6.4 9.7 0.00 0.00 0.00 76 1007.1
20260506120052 17 232 6.4 6.4 0.00 0.00 0.00 76 1006.9
20260506115550 17 198 4.8 4.8 0.00 0.00 0.00 77 1006.9
20260506115048 17 208 4.8 4.8 0.00 0.00 0.00 77 1007.1
20260506114545 17 183 8.0 11.3 0.00 0.00 0.00 77 1007.2
20260506114043 17 226 3.2 3.2 0.00 0.00 0.00 77 1007.3
20260506113541 17 202 3.2 3.2 0.00 0.00 0.00 77 1007.2
20260506113038 17 204 4.8 4.8 0.00 0.00 0.00 77 1007.1
20260506112534 17 232 6.4 9.7 0.00 0.00 0.00 78 1007.1
20260506112032 17 221 4.8 4.8 0.00 0.00 0.00 78 1006.9
20260506111530 16 230 3.2 3.2 0.00 0.00 0.00 78 1007.1
20260506111027 16 242 4.8 4.8 0.00 0.00 0.00 79 1007.2
20260506110524 16 262 4.8 6.4 0.00 0.00 0.00 79 1007.2
20260506110021 16 197 3.2 4.8 0.00 0.00 0.00 79 1007.2
20260506105517 16 224 3.2 4.8 0.00 0.00 0.00 79 1007.2